Location: Pradons
(44.4746°N, 4.3578°E)
Time: 12:14:40
(UTC+00:00)

BREEZE M DEB (TANK) - Pass Details

Date: 09 April 2020
Orbit: 303 x 11878 km, 49.5° (Epoch: 05 June)

Event Time Altitude Azimuth Distance (km) Brightness Sun altitude
Rises 19:15:18 0° 209° (SSW) 2,106 5.4 -10.2°
Reaches altitude 10° 19:16:49 10° 197° (SSW) 1,449 4.4 -10.5°
Maximum altitude 19:19:25 32° 129° (SE) 1,010 3.1 -10.9°
Drops below altitude 10° 19:25:03 10° 68° (ENE) 3,208 5.8 -11.8°
Sets 19:30:22 0° 61° (ENE) 5,555 7.1 -12.7°
